Location: Burtsch�tz
(51.0528°N, 12.1764°E)
Time: 14:33:48
(UTC+00:00)

NOSS 3-3 (A) - Pass Details

Date: 29 October 2020
Orbit: 826 x 1387 km, 63.4° (Epoch: 22 November)

Event Time Altitude Azimuth Distance (km) Brightness Sun altitude
Rises 18:04:50 0° 217° (SW) 3,434 7.3 -21.6°
Reaches altitude 10° 18:07:11 10° 216° (SW) 2,546 6.6 -22.0°
Maximum altitude 18:13:05 79° 131° (SE) 983 3.8 -22.9°
Enters shadow 18:16:11 34° 49° (NE) 1,613 4.8 -23.4°
